sat.trackr.live / text

‹ back to catalog

LEMUR-2-LANGER2SPACE

NORAD 63358 · 2025-061H

PAYLOAD ACTIVE UNKNOWN

§ Identity

Operator
Country
US
Launch date
2025-03-26
Launch site
RLLB
Launch vehicle
Mass (kg)
RCS (m²)

Purposes: earth_obs

External: N2YO · Heavens-Above · Gunter

§ Orbital elements

Epoch: 2026-05-25T00:26:57.605856Z

Period
95.11 min
Inclination
97.5603°
Eccentricity
0.0016221
Mean motion
15.14087931 rev/d
Perigee alt
512.6 km
Apogee alt
534.9 km
Semi-major
6,901.9 km
B*
2.0704e-4
RAAN
120.8824°
Arg perigee
344.3311°
Mean anomaly
15.7416°
Rev number
6,411

§ Raw data

LEMUR-2-LANGER2SPACE1 63358U 25061H   26145.01872229  .00003712  00000+0  20704-3 0  99962 63358  97.5603 120.8824 0016221 344.3311  15.7416 15.14087931 64118

JSON: /api/v1/satellites/63358 · /tle

For live sub-satellite position, see the globe view (requires WebGL).

§ Visibility from observer

Set your observer location to see the next 7 days of passes ≥ 10°. The values pass through the URL so the page stays shareable.

No JS? Fill the form by hand. The geolocation button needs JavaScript.

§ Radio — SatNOGS DB

ModeDescriptionDownlinkUplink
FM Mode U - Transmitter 401.100 MHz

1 transmitter · refreshed weekly from db.satnogs.org